Location: Staunton
(38.1490°N, 79.0720°W)
Time: 15:11:25
(UTC-05:00)

ISS - Pass Details

Date: 14 February 2018
Orbit: 403 x 407 km, 51.6° (Epoch: 20 February)

Event Time Altitude Azimuth Distance (km) Brightness Sun altitude
Rises 18:37:21 0° 299° (WNW) 2,316 0.9 -9.2°
Reaches altitude 10° 18:39:37 10° 287° (WNW) 1,454 0.1 -9.6°
Maximum altitude 18:42:25 27° 227° (SW) 812 -1.6 -10.2°
Drops below altitude 10° 18:45:13 10° 167° (SSE) 1,447 -1.1 -10.7°
Sets 18:47:28 0° 155° (SSE) 2,302 -0.2 -11.2°
